TimeCDT,TemperatureF,Dew PointF,Humidity,Sea Level PressureIn,VisibilityMPH,Wind Direction,Wind SpeedMPH,Gust SpeedMPH,PrecipitationIn,Events,Conditions,WindDirDegrees,DateUTC
12:15 AM,82.4,69.8,66,29.97,10.0,North,-9999.0,-,N/A,,Clear,0,2013-09-13 05:15:00
12:35 AM,80.6,69.8,70,29.97,6.0,North,-9999.0,-,N/A,,Haze,0,2013-09-13 05:35:00
12:55 AM,80.6,69.8,70,29.97,10.0,North,-9999.0,-,N/A,,Clear,0,2013-09-13 05:55:00
1:15 AM,78.8,69.8,74,29.97,10.0,North,-9999.0,-,N/A,,Clear,0,2013-09-13 06:15:00
1:35 AM,78.8,69.8,74,29.97,10.0,North,-9999.0,-,N/A,,Clear,0,2013-09-13 06:35:00
1:55 AM,78.8,69.8,74,29.97,8.0,North,-9999.0,-,N/A,,Clear,0,2013-09-13 06:55:00
2:15 AM,78.8,69.8,74,29.97,10.0,North,-9999.0,-,N/A,,Clear,0,2013-09-13 07:15:00
2:35 AM,78.8,69.8,74,29.97,9.0,North,-9999.0,-,N/A,,Clear,0,2013-09-13 07:35:00
2:55 AM,78.8,69.8,74,29.97,10.0,North,-9999.0,-,N/A,,Clear,0,2013-09-13 07:55:00
3:15 AM,77.0,69.8,78,29.96,9.0,North,-9999.0,-,N/A,,Clear,0,2013-09-13 08:15:00
3:35 AM,77.0,69.8,78,29.96,10.0,North,-9999.0,-,N/A,,Clear,0,2013-09-13 08:35:00
3:55 AM,77.0,69.8,78,29.96,7.0,North,-9999.0,-,N/A,,Clear,0,2013-09-13 08:55:00
4:15 AM,77.0,69.8,78,29.96,10.0,North,-9999.0,-,N/A,,Clear,0,2013-09-13 09:15:00
4:35 AM,75.2,69.8,83,29.96,10.0,North,-9999.0,-,N/A,,Clear,0,2013-09-13 09:35:00
4:55 AM,75.2,69.8,83,29.96,10.0,North,-9999.0,-,N/A,,Clear,0,2013-09-13 09:55:00
5:15 AM,75.2,69.8,83,29.96,10.0,North,-9999.0,-,N/A,,Clear,0,2013-09-13 10:15:00
5:35 AM,75.2,69.8,83,29.96,10.0,North,-9999.0,-,N/A,,Clear,0,2013-09-13 10:35:00
5:55 AM,75.2,69.8,83,29.96,10.0,North,-9999.0,-,N/A,,Clear,0,2013-09-13 10:55:00
6:15 AM,75.2,69.8,83,29.97,9.0,North,-9999.0,-,N/A,,Clear,0,2013-09-13 11:15:00
6:35 AM,73.4,69.8,88,29.97,7.0,North,-9999.0,-,N/A,,Clear,0,2013-09-13 11:35:00
6:55 AM,73.4,69.8,88,29.97,8.0,North,-9999.0,-,N/A,,Clear,0,2013-09-13 11:55:00
7:15 AM,73.4,69.8,88,29.97,3.0,North,-9999.0,-,N/A,,Haze,0,2013-09-13 12:15:00
7:35 AM,75.2,69.8,83,29.98,5.0,North,-9999.0,-,N/A,,Haze,0,2013-09-13 12:35:00
7:55 AM,75.2,69.8,83,29.99,8.0,North,-9999.0,-,N/A,,Clear,0,2013-09-13 12:55:00
8:15 AM,78.8,69.8,74,29.99,8.0,North,-9999.0,-,N/A,,Clear,0,2013-09-13 13:15:00
8:35 AM,78.8,69.8,74,29.99,9.0,North,-9999.0,-,N/A,,Clear,0,2013-09-13 13:35:00
8:55 AM,80.6,69.8,70,29.99,10.0,North,-9999.0,-,N/A,,Clear,0,2013-09-13 13:55:00
9:15 AM,80.6,69.8,70,29.99,9.0,North,-9999.0,-,N/A,,Clear,0,2013-09-13 14:15:00
9:35 AM,82.4,69.8,66,29.99,10.0,North,-9999.0,-,N/A,,Clear,0,2013-09-13 14:35:00
9:55 AM,82.4,71.6,70,29.99,10.0,North,-9999.0,-,N/A,,Clear,0,2013-09-13 14:55:00
10:15 AM,84.2,71.6,66,29.99,10.0,North,-9999.0,-,N/A,,Clear,0,2013-09-13 15:15:00
10:35 AM,86.0,71.6,62,29.99,10.0,North,-9999.0,-,N/A,,Clear,0,2013-09-13 15:35:00
10:55 AM,87.8,71.6,58,29.99,10.0,North,-9999.0,-,N/A,,Clear,0,2013-09-13 15:55:00
11:15 AM,89.6,71.6,55,29.99,10.0,North,-9999.0,-,N/A,,Clear,0,2013-09-13 16:15:00
11:35 AM,89.6,71.6,55,29.98,10.0,North,-9999.0,-,N/A,,Clear,0,2013-09-13 16:35:00
11:55 AM,89.6,69.8,52,29.98,10.0,North,-9999.0,-,N/A,,Clear,0,2013-09-13 16:55:00
12:15 PM,91.4,69.8,49,29.97,10.0,North,-9999.0,-,N/A,,Clear,0,2013-09-13 17:15:00
12:35 PM,91.4,69.8,49,29.97,10.0,North,-9999.0,-,N/A,,Clear,0,2013-09-13 17:35:00
12:55 PM,91.4,69.8,49,29.96,10.0,North,-9999.0,-,N/A,,Partly Cloudy,0,2013-09-13 17:55:00
1:15 PM,91.4,68.0,46,29.94,10.0,North,-9999.0,-,N/A,,Partly Cloudy,0,2013-09-13 18:15:00
1:35 PM,91.4,68.0,46,29.94,10.0,North,-9999.0,-,N/A,,Clear,0,2013-09-13 18:35:00
1:55 PM,91.4,69.8,49,29.93,10.0,North,-9999.0,-,N/A,,Clear,0,2013-09-13 18:55:00
2:15 PM,91.4,68.0,46,29.92,10.0,North,-9999.0,-,N/A,,Clear,0,2013-09-13 19:15:00
2:35 PM,93.2,66.2,41,29.90,10.0,North,-9999.0,-,N/A,,Partly Cloudy,0,2013-09-13 19:35:00
2:55 PM,95.0,66.2,39,29.89,10.0,North,-9999.0,-,N/A,,Partly Cloudy,0,2013-09-13 19:55:00
3:15 PM,93.2,66.2,41,29.89,10.0,North,-9999.0,-,N/A,,Clear,0,2013-09-13 20:15:00
3:35 PM,93.2,66.2,41,29.88,10.0,North,-9999.0,-,N/A,,Clear,0,2013-09-13 20:35:00
3:55 PM,95.0,66.2,39,29.87,10.0,North,-9999.0,-,N/A,,Clear,0,2013-09-13 20:55:00
4:15 PM,95.0,64.4,36,29.86,10.0,North,-9999.0,-,N/A,,Clear,0,2013-09-13 21:15:00
4:35 PM,-9999,-9999,N/A,-9999,-9999.0,North,-9999.0,-,N/A,,Unknown,0,2013-09-13 21:35:00
4:55 PM,-9999,-9999,N/A,-9999,-9999.0,North,-9999.0,-,N/A,,Unknown,0,2013-09-13 21:55:00
5:15 PM,-9999,-9999,N/A,-9999,-9999.0,North,-9999.0,-,N/A,,Unknown,0,2013-09-13 22:15:00
5:35 PM,-9999,-9999,N/A,-9999,-9999.0,North,-9999.0,-,N/A,,Unknown,0,2013-09-13 22:35:00
5:55 PM,93.2,64.4,38,29.86,-9999.0,North,-9999.0,-,N/A,,Unknown,0,2013-09-13 22:55:00
6:15 PM,93.2,64.4,38,29.86,10.0,North,-9999.0,-,N/A,,Clear,0,2013-09-13 23:15:00
6:35 PM,91.4,66.2,43,29.87,10.0,North,-9999.0,-,N/A,,Clear,0,2013-09-13 23:35:00
6:55 PM,91.4,66.2,43,29.87,10.0,North,-9999.0,-,N/A,,Clear,0,2013-09-13 23:55:00
7:15 PM,91.4,66.2,43,29.87,10.0,North,-9999.0,-,N/A,,Clear,0,2013-09-14 00:15:00
7:35 PM,89.6,66.2,46,29.88,10.0,North,-9999.0,-,N/A,,Clear,0,2013-09-14 00:35:00
7:55 PM,89.6,66.2,46,29.88,10.0,North,-9999.0,-,N/A,,Clear,0,2013-09-14 00:55:00
8:15 PM,87.8,66.2,49,29.89,10.0,North,-9999.0,-,N/A,,Clear,0,2013-09-14 01:15:00
8:35 PM,87.8,66.2,49,29.90,10.0,North,-9999.0,-,N/A,,Clear,0,2013-09-14 01:35:00
8:55 PM,87.8,66.2,49,29.91,10.0,North,-9999.0,-,N/A,,Clear,0,2013-09-14 01:55:00
9:15 PM,86.0,66.2,51,29.92,10.0,North,-9999.0,-,N/A,,Clear,0,2013-09-14 02:15:00
9:35 PM,84.2,66.2,55,29.93,10.0,North,-9999.0,-,N/A,,Clear,0,2013-09-14 02:35:00
9:55 PM,84.2,66.2,55,29.93,10.0,North,-9999.0,-,N/A,,Clear,0,2013-09-14 02:55:00
10:15 PM,84.2,66.2,55,29.94,10.0,North,-9999.0,-,N/A,,Clear,0,2013-09-14 03:15:00
10:35 PM,84.2,66.2,55,29.94,10.0,North,-9999.0,-,N/A,,Clear,0,2013-09-14 03:35:00
10:55 PM,82.4,66.2,58,29.94,10.0,North,-9999.0,-,N/A,,Clear,0,2013-09-14 03:55:00
11:15 PM,82.4,64.4,54,29.94,10.0,North,-9999.0,-,N/A,,Clear,0,2013-09-14 04:15:00
11:35 PM,82.4,64.4,54,29.95,10.0,North,-9999.0,-,N/A,,Clear,0,2013-09-14 04:35:00
11:55 PM,82.4,64.4,54,29.95,10.0,North,-9999.0,-,N/A,,Clear,0,2013-09-14 04:55:00